Location: Newark
(47.5989°N, 4.6950°E)
Time: 07:55:37
(UTC+00:00)

Envisat - Pass Details

Date: 23 November 2019
Orbit: 764 x 766 km, 98.1° (Epoch: 14 December)

Event Time Altitude Azimuth Distance (km) Brightness Sun altitude
Rises 16:28:45 0° 132° (SE) 3,224 6.0 -5.5°
Reaches altitude 10° 16:31:19 10° 121° (ESE) 2,302 5.1 -5.9°
Maximum altitude 16:35:35 28° 63° (ENE) 1,414 3.8 -6.6°
Drops below altitude 10° 16:39:52 10° 6° (N) 2,314 5.2 -7.3°
Sets 16:42:26 0° 355° (N) 3,245 6.1 -7.7°
